Weather History for Rockport, TX

Change the Weather History Date:

Sunday, March 17, 2013

  Actual Average Record
Temperature  
Mean Temperature 72 °F -  
Max Temperature 79 °F 73 °F 85 °F (1991)
Min Temperature 66 °F 57 °F 41 °F (1973)
Cooling Degree Days 7    
Growing Degree Days 22 (Base 50)    
Moisture  
Dew Point 66 °F    
Average Humidity 84    
Maximum Humidity 94    
Minimum Humidity 68    
Precipitation  
Precipitation 0.00 in - - ()
Sea Level Pressure  
Sea Level Pressure 29.76 in    
Wind  
Wind Speed 11 mph (SSE)    
Max Wind Speed 15 mph    
Max Gust Speed 26 mph    
Visibility 8 miles    
Events      
Averages and records for this station are not official NWS values.
T = Trace of Precipitation, MM = Missing Value Source: NWS Daily Summary

Daily Weather History Graph

Daily Weather History Graph

Search for Another Location

Airport:

Trip Planner

Search our weather history database for the weather conditions in past years. The results will help you decide how hot, cold, wet, or windy it might be!

Date:

Astronomy

Mar. 17, 2013 Rise Set
Actual Time 7:35 AM CDT 7:38 PM CDT
Civil Twilight 7:11 AM CDT 8:01 PM CDT
Nautical Twilight 6:44 AM CDT 8:28 PM CDT
Astronomical Twilight 6:17 AM CDT 8:56 PM CDT
Moon 11:16 AM CDT (3/17) 12:20 AM CDT (3/17)
Length of Visible Light 12h 49m
Length of Day
12h 02m
Waxing Crescent, 31% of the Moon is Illuminated
Mar 17
Waxing Crescent
Mar 19
First Quarter
Mar 27
Full
Apr 2
Last Quarter
Apr 10
New

Hourly Weather History & Observations

Time (CDT) Temp. Dew Point Humidity Pressure Visibility Wind Dir Wind Speed Gust Speed Precip Events Conditions
12:53 AM 68.0 °F 64.0 °F 87% 29.85 in 10.0 mi SSE 9.2 mph - N/A   Overcast
1:53 AM 68.0 °F 64.0 °F 87% 29.83 in 10.0 mi SSE 9.2 mph - N/A   Mostly Cloudy
2:53 AM 69.1 °F 64.0 °F 84% 29.81 in 10.0 mi SSE 10.4 mph - N/A   Overcast
3:28 AM 69.8 °F 64.4 °F 83% 29.79 in 10.0 mi SSE 10.4 mph 18.4 mph N/A   Overcast
3:53 AM 68.0 °F 64.0 °F 87% 29.79 in 10.0 mi SSE 11.5 mph 18.4 mph N/A   Mostly Cloudy
4:05 AM 68.0 °F 64.4 °F 88% 29.78 in 10.0 mi SSE 13.8 mph 21.9 mph N/A   Scattered Clouds
4:53 AM 68.0 °F 64.0 °F 87% 29.78 in 10.0 mi SSE 8.1 mph - N/A   Clear
5:53 AM 66.9 °F 64.0 °F 90% 29.78 in 9.0 mi South 6.9 mph - N/A   Clear
6:53 AM 66.9 °F 64.0 °F 90% 29.79 in 9.0 mi SSE 8.1 mph - N/A   Clear
7:53 AM 66.9 °F 64.0 °F 90% 29.80 in 8.0 mi SSE 9.2 mph - N/A   Clear
8:53 AM 68.0 °F 64.9 °F 90% 29.80 in 8.0 mi SSE 9.2 mph - N/A   Scattered Clouds
9:00 AM 69.8 °F 64.4 °F 83% 29.80 in 8.0 mi SSE 9.2 mph - N/A   Mostly Cloudy
9:53 AM 72.0 °F 64.9 °F 78% 29.82 in 9.0 mi SSE 10.4 mph 19.6 mph N/A   Overcast
10:53 AM 73.9 °F 66.0 °F 76% 29.83 in 9.0 mi SSE 11.5 mph 21.9 mph N/A   Overcast
11:53 AM 75.0 °F 66.0 °F 73% 29.81 in 9.0 mi SSE 15.0 mph 25.3 mph N/A   Mostly Cloudy
12:53 PM 77.0 °F 66.9 °F 71% 29.80 in 9.0 mi South 12.7 mph 25.3 mph N/A   Overcast
1:53 PM 77.0 °F 66.9 °F 71% 29.76 in 9.0 mi SSE 15.0 mph 20.7 mph N/A   Overcast
2:23 PM 77.0 °F 66.2 °F 69% 29.74 in 9.0 mi SSE 11.5 mph 23.0 mph N/A   Scattered Clouds
3:53 PM 78.1 °F 66.9 °F 68% 29.71 in 8.0 mi SE 12.7 mph 21.9 mph N/A   Clear
4:53 PM 77.0 °F 66.9 °F 71% 29.69 in 8.0 mi SSE 12.7 mph 26.5 mph N/A   Clear
5:53 PM 73.9 °F 66.9 °F 79% 29.69 in 7.0 mi SSE 15.0 mph 21.9 mph N/A   Clear
6:53 PM 72.0 °F 66.9 °F 84% 29.69 in 6.0 mi SSE 15.0 mph 23.0 mph N/A   Haze
7:53 PM 70.0 °F 66.9 °F 90% 29.69 in 5.0 mi SSE 15.0 mph 21.9 mph N/A   Partly Cloudy
8:09 PM 69.8 °F 66.2 °F 88% 29.69 in 6.0 mi SSE 13.8 mph 20.7 mph N/A   Mostly Cloudy
8:25 PM 69.8 °F 68.0 °F 94% 29.70 in 5.0 mi SSE 13.8 mph - N/A   Overcast
8:53 PM 70.0 °F 68.0 °F 93% 29.71 in 5.0 mi SSE 13.8 mph 20.7 mph N/A   Overcast
9:08 PM 69.8 °F 68.0 °F 94% 29.71 in 5.0 mi SSE 12.7 mph 21.9 mph N/A   Overcast
9:53 PM 70.0 °F 68.0 °F 93% 29.73 in 5.0 mi SSE 11.5 mph 18.4 mph N/A   Overcast
10:53 PM 70.0 °F 68.0 °F 93% 29.73 in 5.0 mi SSE 12.7 mph - N/A   Overcast
11:45 PM 69.8 °F 68.0 °F 94% 29.73 in 4.0 mi SSE 10.4 mph - N/A   Overcast
11:53 PM 70.0 °F 68.0 °F 93% 29.74 in 4.0 mi SSE 13.8 mph 21.9 mph N/A   Overcast